TimeCST,TemperatureF,Dew PointF,Humidity,Sea Level PressureIn,VisibilityMPH,Wind Direction,Wind SpeedMPH,Gust SpeedMPH,PrecipitationIn,Events,Conditions,WindDirDegrees,DateUTC
12:53 AM,10.0,-4.0,53,30.79,10.0,North,3.5,-,N/A,,Clear,10,2014-01-24 06:53:00
1:53 AM,9.0,-2.0,61,30.78,10.0,Calm,Calm,-,N/A,,Clear,0,2014-01-24 07:53:00
2:53 AM,8.1,-0.9,67,30.78,10.0,Calm,Calm,-,N/A,,Clear,0,2014-01-24 08:53:00
3:53 AM,6.1,-0.9,73,30.75,10.0,Calm,Calm,-,N/A,,Clear,0,2014-01-24 09:53:00
4:53 AM,7.0,-0.9,70,30.74,10.0,Calm,Calm,-,N/A,,Clear,0,2014-01-24 10:53:00
5:53 AM,6.1,-0.0,76,30.72,10.0,Calm,Calm,-,N/A,,Clear,0,2014-01-24 11:53:00
6:53 AM,7.0,-0.0,73,30.71,10.0,Calm,Calm,-,N/A,,Clear,0,2014-01-24 12:53:00
7:53 AM,10.9,3.0,70,30.71,10.0,SSW,3.5,-,N/A,,Clear,200,2014-01-24 13:53:00
8:53 AM,16.0,1.9,54,30.69,10.0,SSW,11.5,-,N/A,,Clear,200,2014-01-24 14:53:00
9:53 AM,18.0,-0.0,45,30.67,10.0,SW,8.1,-,N/A,,Clear,220,2014-01-24 15:53:00
10:53 AM,21.9,1.9,42,30.64,10.0,SW,15.0,20.7,N/A,,Clear,220,2014-01-24 16:53:00
11:53 AM,23.0,1.9,40,30.58,10.0,SW,12.7,19.6,N/A,,Clear,230,2014-01-24 17:53:00
12:53 PM,26.1,3.0,37,30.51,10.0,SSW,18.4,21.9,N/A,,Clear,210,2014-01-24 18:53:00
1:53 PM,28.0,3.9,36,30.43,10.0,SSW,20.7,26.5,N/A,,Clear,200,2014-01-24 19:53:00
2:53 PM,28.9,5.0,36,30.38,10.0,SW,17.3,-,N/A,,Clear,220,2014-01-24 20:53:00
3:53 PM,30.0,6.1,36,30.35,10.0,SSW,15.0,23.0,N/A,,Clear,210,2014-01-24 21:53:00
4:53 PM,28.9,3.9,35,30.31,10.0,SSW,16.1,-,N/A,,Clear,210,2014-01-24 22:53:00
5:53 PM,27.0,7.0,43,30.27,10.0,SSW,16.1,-,N/A,,Clear,200,2014-01-24 23:53:00
6:53 PM,27.0,8.1,45,30.25,10.0,SSW,13.8,-,N/A,,Clear,200,2014-01-25 00:53:00
7:53 PM,26.1,8.1,47,30.21,10.0,SSW,17.3,-,N/A,,Clear,200,2014-01-25 01:53:00
8:53 PM,28.0,8.1,43,30.17,10.0,SSW,17.3,-,N/A,,Clear,210,2014-01-25 02:53:00
9:53 PM,28.9,8.1,41,30.14,10.0,SW,19.6,27.6,N/A,,Clear,220,2014-01-25 03:53:00
10:53 PM,28.0,10.0,47,30.11,10.0,SW,17.3,-,N/A,,Clear,220,2014-01-25 04:53:00
11:53 PM,28.9,10.0,45,30.06,10.0,SW,20.7,25.3,N/A,,Clear,220,2014-01-25 05:53:00